Regional Weather Roundup
Issued by NWS

Home | Current Version | Previous Version | Text Only | Print | Product List | Glossary On
Versions: 1 2 3 4 5 6 7 8 9 10 11 12 13 14 15 16 17 18 19 20 21 22 23 24 25 26 27 28 29 30 31 32 33 34 35 36 37 38 39 40 41 42 43 44 45 46 47 48 49 50
000
ASUS43 KBIS 212102
RWRND

NORTH DAKOTA REGIONAL WEATHER ROUNDUP
NATIONAL WEATHER SERVICE BISMARCK ND
300 PM CST SAT JAN 21 2017

NOTE: "FAIR" INDICATES FEW OR NO CLOUDS BELOW 12,000 FEET WITH NO
SIGNIFICANT WEATHER AND/OR OBSTRUCTIONS TO VISIBILITY.


NDZ001>003-009>011-017-212200-
NORTHWEST NORTH DAKOTA

CITY           SKY/WX    TMP DP  RH WIND       PRES   REMARKS
WILLISTON      PTSUNNY   32  25  75 W10       29.39R
MINOT          CLOUDY    31  27  85 SW6       29.37R
MINOT AFB      PTSUNNY   29  27  90 SW7       29.37R
$$

NDZ018>021-031>035-040>046-212200-
SOUTHWEST NORTH DAKOTA

CITY           SKY/WX    TMP DP  RH WIND       PRES   REMARKS
BISMARCK       CLOUDY    32  29  88 NW3       29.41R
DICKINSON      FAIR      34  25  69 W14       29.35R
GARRISON         N/A     25  24  96 SW6       29.38R WCI  18
HETTINGER ARPT SUNNY     32  26  78 W13       29.40R
$$

NDZ004>008-012>016-024-026-027-054-212200-
NORTHEAST NORTH DAKOTA

CITY           SKY/WX    TMP DP  RH WIND       PRES   REMARKS
GRAND FORKS    CLOUDY    37  33  85 E5        29.43R
GRND FRKS AFB  CLOUDY    36  34  95 CALM      29.43R
DEVILS LAKE    LGT RAIN  33  33 100 S5        29.41R FOG
$$

NDZ022-023-025-028>030-036>039-047>053-212200-
SOUTHEAST NORTH DAKOTA

CITY           SKY/WX    TMP DP  RH WIND       PRES   REMARKS
FARGO          CLOUDY    39  34  82 E6        29.41R
JAMESTOWN      FOG       33  33 100 CALM      29.38R VSB 3/4
$$





USA.gov is the U.S. government's official web portal to all federal, state and local government web resources and services.